7 * 24
多渠道服务支持
RADUGA 1-5(虹1-5)是独联体(CIS)/俄罗斯“虹”(Raduga)系列第二代地球同步轨道通信卫星,于2000年8月28日发射升空。该星由俄罗斯应用力学科研生产联合体基于KAUR-3平台研制,发射质量2320千克,配备6路C频段转发器,由俄罗斯航天部队运营,主要承担东半球区域军事通信与民用电视、电报电话业务,是俄罗斯“虹”通信卫星组网的重要成员。
| 数据来源 | 国际轨道数据 |
| 星历时间: | 2026-07-27T19:26:07+0800 10小时前 查看轨道信息 |
| 半长轴: | 42183.605km |
| 偏心率: | 0.0001504 |
| 轨道倾角: | 13.989° |
| 近地点辐角 | 78.121° |
| 升交点赤经 | 7.761° |
| 平近点角 | 105.246° |
| 近地点: | 35799.123km |
| 远地点: | 35811.813km |
| 周期: | 1437.061分钟 |
| 每日圈数: | 1.002045 |